Regional Weather Roundup
Issued by NWS Raleigh/Durham, NC

Home | Current Version | Previous Version | Text Only | Print | Product List | Glossary On
Versions: 1 2 3 4 5 6 7 8 9 10 11 12 13 14 15 16 17 18 19 20 21 22 23 24 25 26 27 28
000
ASUS42 KRAH 251410
RWRRAH
NORTH CAROLINA WEATHER ROUNDUP
NATIONAL WEATHER SERVICE RALEIGH NC
1000 AM EDT MON JUL 25 2016

NOTE: "FAIR" INDICATES FEW OR NO CLOUDS BELOW 12,000 FEET WITH NO
SIGNIFICANT WEATHER AND/OR OBSTRUCTIONS TO VISIBILITY.

NCZ001-053-055-056-065-067-251500-
WESTERN NORTH CAROLINA

CITY           SKY/WX    TMP DP  RH WIND       PRES   REMARKS
ASHEVILLE      SUNNY     79  68  69 NW3       30.17F
JEFFERSON      MOSUNNY   75  68  77 CALM      30.21F
MORGANTON      SUNNY     83  73  71 CALM      30.14F
HICKORY        SUNNY     82  74  76 W5        30.10S
RUTHERFORDTON    N/A     82  74  76 CALM      30.11S
MOUNT AIRY     SUNNY     84  76  76 CALM      30.10F
BOONE          SUNNY    N/A N/A N/A NW7       30.22S
$$

NCZ021-022-025-041-071-084-088-251500-
CENTRAL NORTH CAROLINA

CITY           SKY/WX    TMP DP  RH WIND       PRES   REMARKS
CHARLOTTE      MOSUNNY   86  72  62 W6        30.08F
GREENSBORO     PTSUNNY   85  73  67 S8        30.07S
WINSTON-SALEM  SUNNY     85  73  67 VRB5      30.09S
RALEIGH-DURHAM MOSUNNY   86  76  71 SW9       30.05F HX  96
FORT BRAGG     MOSUNNY   86  72  62 W8        30.05F
FAYETTEVILLE   SUNNY     87  74  64 W10       30.06F HX  95
BURLINGTON     SUNNY     85  75  72 S8        30.05F
LAURINBURG     SUNNY     87  74  64 SW10      30.07F HX  95
$$

NCZ011-015-027-028-043-044-047-080-103-251500-
NORTHEASTERN NORTH CAROLINA

CITY           SKY/WX    TMP DP  RH WIND       PRES   REMARKS
ROCKY MT-WILSO SUNNY     85  78  80 SW6       30.05F HX  96
GREENVILLE     SUNNY     86  79  79 W7        30.06F HX  99
WASHINGTON     SUNNY     85  77  78 SW7       30.05F HX  96
ELIZABETH CITY SUNNY     87  77  72 SW10      30.03F HX  99
MANTEO           N/A     85  79  81 W9        30.04F HX  98
CAPE HATTERAS  SUNNY     85  74  69 W9        30.06F
$$

NCZ078-087-090-091-093-098-101-251500-
SOUTHEASTERN NORTH CAROLINA

CITY           SKY/WX    TMP DP  RH WIND       PRES   REMARKS
LUMBERTON      SUNNY     84  75  74 SW9       30.07S
GOLDSBORO      SUNNY     87  81  83 SW8       30.05S HX 103
KINSTON        SUNNY     86  75  70 S7        30.07F HX  95
KENANSVILLE    NOT AVBL
NEW BERN       SUNNY     87  75  67 W8        30.07F HX  96
CHERRY POINT   MOSUNNY   87  75  67 SW10      30.07F HX  96
BEAUFORT       MOSUNNY   86  76  71 SW10      30.07F HX  96
JACKSONVILLE   MOSUNNY   86  73  65 W8        30.06F
WILMINGTON     SUNNY     87  75  67 SW12      30.08F HX  96
$$





USA.gov is the U.S. government's official web portal to all federal, state and local government web resources and services.